ACA1345 MYNN-CYHZ

Flight info

Callsign ACA1345
Flight time N/A
Altitude 31000
Route INGRA G437 ELBOW DCT JAZZI/N0470F330 DCT ELERI PEGGY5
Aircraft B738/M-SDE2E3FGHIRWXY/LB1

Departure

Time 2026-05-06 22:05
Airport Lynden Pindling International Airport (MYNN)

Arrival

Time N/A
Airport Halifax / Stanfield International Airport (CYHZ)
Time Latitude Longitude Altitude Speed Heading
2026-05-06 21:28 25.04801 -77.46730 16 ft 0 kts 312°
2026-05-06 21:52 25.04793 -77.46723 17 ft 4 kts 325°
2026-05-06 21:52 25.04776 -77.46709 16 ft 4 kts 326°
2026-05-06 21:53 25.04754 -77.46693 16 ft 4 kts 315°
2026-05-06 21:53 25.04747 -77.46683 17 ft 1 kts 241°
2026-05-06 21:53 25.04749 -77.46679 16 ft 0 kts 241°
2026-05-06 21:56 25.04749 -77.46680 16 ft 0 kts 241°
2026-05-06 21:57 25.04744 -77.46689 16 ft 2 kts 241°
2026-05-06 21:57 25.04731 -77.46713 16 ft 5 kts 233°
2026-05-06 21:57 25.04691 -77.46740 18 ft 8 kts 190°
2026-05-06 21:57 25.04639 -77.46708 17 ft 10 kts 136°
2026-05-06 21:58 25.04583 -77.46648 17 ft 12 kts 134°
2026-05-06 21:58 25.04527 -77.46584 17 ft 11 kts 134°
2026-05-06 21:58 25.04473 -77.46523 16 ft 11 kts 135°
2026-05-06 21:58 25.04418 -77.46465 16 ft 11 kts 136°
2026-05-06 21:59 25.04367 -77.46408 17 ft 10 kts 133°
2026-05-06 21:59 25.04317 -77.46352 17 ft 10 kts 135°
2026-05-06 21:59 25.04269 -77.46298 17 ft 10 kts 135°
2026-05-06 21:59 25.04221 -77.46245 16 ft 10 kts 135°
2026-05-06 22:00 25.04175 -77.46194 18 ft 9 kts 134°
2026-05-06 22:00 25.04129 -77.46143 16 ft 10 kts 134°
2026-05-06 22:00 25.04075 -77.46082 17 ft 13 kts 134°
2026-05-06 22:00 25.04003 -77.46002 18 ft 16 kts 135°
2026-05-06 22:01 25.03916 -77.45905 19 ft 19 kts 135°
2026-05-06 22:01 25.03814 -77.45793 19 ft 22 kts 135°
2026-05-06 22:01 25.03704 -77.45670 18 ft 23 kts 135°
2026-05-06 22:01 25.03593 -77.45548 16 ft 22 kts 134°
2026-05-06 22:02 25.03485 -77.45428 16 ft 22 kts 135°
2026-05-06 22:02 25.03380 -77.45313 18 ft 21 kts 134°
2026-05-06 22:02 25.03294 -77.45218 17 ft 16 kts 137°
2026-05-06 22:02 25.03209 -77.45182 17 ft 11 kts 179°
2026-05-06 22:03 25.03132 -77.45194 21 ft 11 kts 201°
2026-05-06 22:03 25.03109 -77.45263 20 ft 11 kts 296°
2026-05-06 22:03 25.03126 -77.45287 19 ft 0 kts 313°
2026-05-06 22:03 25.03131 -77.45292 19 ft 5 kts 313°
2026-05-06 22:04 25.03231 -77.45403 19 ft 49 kts 315°
2026-05-06 22:04 25.03637 -77.45853 19 ft 115 kts 315°
2026-05-06 22:04 25.04336 -77.46629 22 ft 169 kts 315°
2026-05-06 22:04 25.05207 -77.47603 501 ft 182 kts 316°
2026-05-06 22:05 25.06065 -77.48605 1357 ft 178 kts 315°
2026-05-06 22:05 25.06916 -77.49626 1966 ft 189 kts 314°
2026-05-06 22:05 25.07885 -77.50773 2194 ft 217 kts 314°
2026-05-06 22:05 25.08958 -77.52028 2395 ft 239 kts 314°
2026-05-06 22:06 25.10162 -77.53422 2628 ft 262 kts 315°
2026-05-06 22:06 25.11704 -77.54499 3240 ft 268 kts 347°
2026-05-06 22:06 25.13552 -77.54422 3963 ft 270 kts 22°
2026-05-06 22:06 25.15073 -77.53238 4730 ft 271 kts 46°
2026-05-06 22:07 25.16435 -77.51771 5410 ft 277 kts 43°
2026-05-06 22:07 25.17856 -77.50311 6140 ft 281 kts 43°
2026-05-06 22:07 25.19309 -77.48847 6846 ft 285 kts 42°
2026-05-06 22:07 25.20786 -77.47378 7552 ft 288 kts 41°
2026-05-06 22:08 25.22267 -77.45916 8222 ft 291 kts 41°
2026-05-06 22:08 25.23791 -77.44419 8877 ft 295 kts 41°
2026-05-06 22:08 25.25339 -77.42901 9531 ft 299 kts 41°
2026-05-06 22:08 25.26898 -77.41376 10220 ft 301 kts 41°
2026-05-06 22:09 25.28505 -77.39808 10524 ft 318 kts 40°
2026-05-06 22:09 25.30211 -77.38143 10686 ft 337 kts 40°
2026-05-06 22:09 25.32018 -77.36379 10833 ft 356 kts 40°